Regional Weather Roundup
Issued by NWS

Home | Current Version | Previous Version | Text Only | Print | Product List | Glossary Off
Versions: 1 2 3 4 5 6 7 8 9 10 11 12 13 14 15 16 17 18 19 20 21 22 23 24 25 26 27 28 29 30 31 32 33 34 35 36 37 38 39 40 41 42 43 44 45 46 47 48 49 50

000
ASUS43 KDTX 260610
RWRMI
MICHIGAN HOURLY REGIONAL WEATHER ROUNDUP
NATIONAL WEATHER SERVICE DETROIT/PONTIAC MI
100 AM EST WED NOV 26 2014

NOTE: "FAIR" INDICATES FEW OR NO CLOUDS BELOW 12,000 FEET WITH NO
SIGNIFICANT WEATHER AND/OR OBSTRUCTION TO VISIBILITY.

MIZ047>049-052>055-059>063-066>070-074>076-081>083-260700-
SOUTHEAST LOWER MICHIGAN

CITY           SKY/WX    TMP DP  RH WIND       PRES   REMARKS
ADRIAN         CLOUDY    27  20  75 CALM      30.20F
6HR MIN TEMP:  27; 6HR MAX TEMP:  28;

ALMA           CLOUDY    29  23  76 W6        30.19S
ANN ARBOR      CLOUDY    29  19  66 NW5       30.20R
BAD AXE        CLOUDY    30  23  75 W6        30.19S
6HR MIN TEMP:  30; 6HR MAX TEMP:  32;

DETROIT CITY   CLOUDY    33  21  61 CALM      30.20S
6HR MIN TEMP:  32; 6HR MAX TEMP:  33;

DETROIT        CLOUDY    30  21  69 CALM      30.21S
6HR MIN TEMP:  30; 6HR MAX TEMP:  31;

FLINT          CLOUDY    31  21  66 SW3       30.20R
6HR MIN TEMP:  31; 6HR MAX TEMP:  32;

GROSSE ILE     CLOUDY    30  21  69 CALM      30.20F
HILLSDALE      CLOUDY    26  21  80 CALM      30.17S
6HR MIN TEMP:  26; 6HR MAX TEMP:  28;

HOWELL         CLOUDY    28  21  74 CALM      30.18R
6HR MIN TEMP:  28; 6HR MAX TEMP:  30;


CITY           SKY/WX    TMP DP  RH WIND       PRES   REMARKS
JACKSON        CLOUDY    27  20  75 SW6       30.18S
6HR MIN TEMP:  27; 6HR MAX TEMP:  28;

LAMBERTVILLE   CLOUDY    30  21  69 CALM      30.20F
LANSING        CLOUDY    29  20  69 SW7       30.19F
6HR MIN TEMP:  28; 6HR MAX TEMP:  30;

LAPEER         NOT AVBL
MASON          CLOUDY    28  21  74 CALM      30.18S
MONROE         CLOUDY    28  21  74 CALM      30.19F
MT. CLEMENS    CLOUDY    31  23  70 NE1       30.18S
6HR MIN TEMP:  31; 6HR MAX TEMP:  32;

PONTIAC        CLOUDY    29  20  69 CALM      30.17S
6HR MIN TEMP:  29; 6HR MAX TEMP:  30; 6HR PCP: TRACE;

PORT HOPE        N/A     31  24  75 VRB3      30.18R
6HR MIN TEMP:  31; 6HR MAX TEMP:  33;

PORT HURON     CLOUDY    30  21  69 CALM      30.21R
TRI CITIES     CLOUDY    31  21  66 W5        30.20R
6HR MIN TEMP:  31; 6HR MAX TEMP:  32;

YPSILANTI      CLOUDY    32  21  64 S6        30.20S
6HR MIN TEMP:  32; 6HR MAX TEMP:  33;

$$
MIZ043>046-050>051-056>058-064>065-071>073-077>080-260700-
SOUTHWEST LOWER MICHIGAN

CITY           SKY/WX    TMP DP  RH WIND       PRES   REMARKS
BATTLE CREEK   CLOUDY    29  19  66 SW5       30.18S
6HR MIN TEMP:  29; 6HR MAX TEMP:  30;

BENTON HARBOR  CLOUDY    25  18  74 S5        30.20S
6HR MIN TEMP:  25; 6HR MAX TEMP:  28;

BIG RAPIDS     CLOUDY    27  24  91 CALM      30.16S
6HR MIN TEMP:  26; 6HR MAX TEMP:  28;

COLDWATER      CLOUDY    28  21  77 CALM      30.18S
6HR MIN TEMP:  28; 6HR MAX TEMP:  29;

HOLLAND        CLOUDY    30  22  72 S8        30.18F
6HR MIN TEMP:  30; 6HR MAX TEMP:  32;

GRAND RAPIDS   CLOUDY    28  22  78 S7        30.18S
6HR MIN TEMP:  28; 6HR MAX TEMP:  29;

KALAMAZOO      CLOUDY    27  19  72 S7        30.18F
6HR MIN TEMP:  27; 6HR MAX TEMP:  29;

MARSHALL       CLOUDY    26  19  73 CALM      30.18S
MUSKEGON       CLOUDY    31  23  72 SW7       30.17F
6HR MIN TEMP:  30; 6HR MAX TEMP:  31;

$$
MIZ016>042-260700-
NORTHERN LOWER MICHIGAN

CITY           SKY/WX    TMP DP  RH WIND       PRES   REMARKS
ALPENA         CLOUDY    27  25  92 CALM      30.18R
6HR MIN TEMP:  26; 6HR MAX TEMP:  28; 6HR PCP:  0.01;

BEAVER ISLAND  CLOUDY    26  22  84 CALM      30.15S
6HR MIN TEMP:  26; 6HR MAX TEMP:  29;

BELLAIRE       CLOUDY    28  23  82 S7        30.18R
CADILLAC       FLURRIES  24  19  83 S5        30.14R
CHARLEVOIX     CLOUDY    28  22  79 CALM      30.18S
6HR MIN TEMP:  28; 6HR MAX TEMP:  29;

FRANKFORT      CLOUDY    27  22  79 SW5       30.17R
GAYLORD        CLOUDY    24  19  81 SW6       30.14R
6HR MIN TEMP:  24; 6HR MAX TEMP:  25; 6HR PCP: TRACE;

GRAYLING       CLOUDY    26  20  80 SW3       30.16R
HARBOR SPRINGS CLOUDY    29  22  75 S6        30.15R
HOUGHTON LAKE  CLOUDY    25  18  74 SW7       30.16S
6HR MIN TEMP:  25; 6HR MAX TEMP:  27;

MANISTEE       CLOUDY    27  21  80 SE5       30.18R
OSCODA         CLOUDY    28  23  81 CALM      30.19R
PELLSTON       CLOUDY    25  23  92 CALM      30.16R
TRAVERSE CITY  CLOUDY    27  21  78 S3        30.17R
6HR MIN TEMP:  27; 6HR MAX TEMP:  28; 6HR PCP: TRACE;

$$
MIZ007>008-015-260700-
EASTERN UPPER MICHIGAN

CITY           SKY/WX    TMP DP  RH WIND       PRES   REMARKS
KINROSS        PTCLDY    19  18  93 NW6       30.14S
6HR MIN TEMP:  19; 6HR MAX TEMP:  25;

MACKINAC ISLAN CLOUDY    26  19  77 CALM      30.15R
6HR MIN TEMP:  26; 6HR MAX TEMP:  27;

NEWBERRY       PTCLDY     5   4  95 SW5       30.15R
6HR MIN TEMP:   5; 6HR MAX TEMP:  23;

S. S. MARIE    CLOUDY    24  18  77 SW9       30.13R
6HR MIN TEMP:  24; 6HR MAX TEMP:  28; 6HR PCP: TRACE;

$$
MIZ004>006-011>014-085-260700-
CENTRAL UPPER MICHIGAN

CITY           SKY/WX    TMP DP  RH WIND       PRES   REMARKS
MANISTIQUE     CLOUDY     8   6  92 N3        30.15R
6HR MIN TEMP:   7; 6HR MAX TEMP:  20;

ESCANABA       CLOUDY    12  12 100 W6        30.15R
6HR MIN TEMP:   7; 6HR MAX TEMP:  16;

MENOMINEE      CLOUDY    18  12  79 W5        30.17R
6HR MIN TEMP:  18; 6HR MAX TEMP:  25;

SAWYER-GWINN   CLEAR     -3  -7  82 CALM      30.10S
6HR MIN TEMP:  -3; 6HR MAX TEMP:  11;

$$
MIZ001>003-009>011-084-260700-
WESTERN UPPER MICHIGAN

CITY           SKY/WX    TMP DP  RH WIND       PRES   REMARKS
IRON MOUNTAIN  PTCLDY     1  -4  79 CALM      30.12R
6HR MIN TEMP:  -3; 6HR MAX TEMP:   8;

HOUGHTON       CLOUDY    15   9  76 CALM      30.08R
6HR MIN TEMP:  15; 6HR MAX TEMP:  21;

COPPER HARBOR    N/A     24  13  62 W7        30.10R
6HR MIN TEMP:  16; 6HR MAX TEMP:  24;

IRONWOOD       MOCLDY     1   1 100 CALM      30.05R
6HR MIN TEMP:   1; 6HR MAX TEMP:   9;

$$

ABBREVIATIONS USED IN REMARKS
   TC - TEMPERATURE IN CELSIUS
  WCI - WIND CHILL INDEX
   HX - HEAT INDEX
  VSB - VISIBILITY



USA.gov is the U.S. government's official web portal to all federal, state and local government web resources and services.